Location: Newark
(48.8656°N, 2.3211°E)
Time: 08:13:16
(UTC+00:00)

Envisat - Pass Details

Date: 09 December 2019
Orbit: 764 x 766 km, 98.1° (Epoch: 28 January)

Event Time Altitude Azimuth Distance (km) Brightness Sun altitude
Rises 16:35:01 0° 132° (SE) 3,225 6.0 -6.6°
Reaches altitude 10° 16:37:33 10° 122° (ESE) 2,303 5.2 -7.0°
Maximum altitude 16:41:54 29° 63° (ENE) 1,375 3.8 -7.6°
Drops below altitude 10° 16:46:15 10° 5° (N) 2,317 5.2 -8.3°
Sets 16:48:48 0° 354° (N) 3,248 6.0 -8.6°
